Location: Newark
(51.3000°N, 178.2000°W)
Time: 02:17:29
(UTC+00:00)

ISS - Pass Details

Date: 14 May 2021
Orbit: 417 x 422 km, 51.6° (Epoch: 15 June)

Event Time Altitude Azimuth Distance (km) Brightness Sun altitude
Rises 09:58:56 0° 229° (SW) 2,358 -0.1 -15.9°
Enters shadow 09:59:43 - 227° (SW) 2,044 -0.4 -16.0°
Exits shadow 10:07:53 - 81° (E) 1,693 -0.8 -16.5°
Sets 10:09:35 0° 76° (ENE) 2,375 0.0 -16.6°
